This is the latest recevied weather packets stored in our database for station/object KE7JVX-3. If no packets are shown the sender has not sent any weather packets the latest 10 day(s).
| Time | Temp. | Humidity | Pressure | Rain* | Wind** | Luminosity | Snow |
|---|---|---|---|---|---|---|---|
| 1777712752 | 6.11° C | 31% | 1011.8 hPa | 0 mm | - | - | - |
| 1777712493 | 6.11° C | 31% | 1011.8 hPa | 0 mm | - | - | - |
| 1777711889 | 6.11° C | 30% | 1011.9 hPa | 0 mm | - | - | - |
| 1777711289 | 6.11° C | 30% | 1012 hPa | 0 mm | - | - | - |
| 1777710688 | 6.11° C | 31% | 1012 hPa | 0 mm | - | - | - |
| 1777710384 | 6.11° C | 31% | 1012.1 hPa | 0 mm | - | - | - |
| 1777710089 | 6.11° C | 31% | 1012.1 hPa | 0 mm | - | - | - |
| 1777709802 | 6.11° C | 31% | 1012.1 hPa | 0 mm | - | - | - |
| 1777709488 | 6.11° C | 31% | 1012.1 hPa | 0 mm | - | - | - |
| 1777709068 | 6.11° C | 30% | 1012.2 hPa | 0 mm | - | - | - |
| 1777708888 | 6.11° C | 30% | 1012.2 hPa | 0 mm | - | - | - |
| 1777708607 | 6.11° C | 30% | 1012.2 hPa | 0 mm | - | - | - |
| 1777708288 | 6.11° C | 30% | 1012.2 hPa | 0 mm | - | - | - |
| 1777707971 | 6.11° C | 31% | 1012.3 hPa | 0 mm | - | - | - |
| 1777707688 | 6.11° C | 31% | 1012.3 hPa | 0 mm | - | - | - |
| 1777707089 | 6.11° C | 32% | 1012.3 hPa | 0 mm | - | - | - |
| 1777706489 | 6.67° C | 31% | 1012.1 hPa | 0 mm | - | - | - |
| 1777705889 | 7.22° C | 31% | 1012.1 hPa | 0 mm | - | - | - |
| 1777705288 | 7.22° C | 30% | 1012.3 hPa | 0 mm | - | - | - |
| 1777704688 | 7.78° C | 29% | 1012.3 hPa | 0 mm | - | - | - |
| 1777704088 | 7.78° C | 30% | 1012.2 hPa | 0 mm | - | - | - |
| 1777703488 | 7.78° C | 26% | 1012.3 hPa | 0 mm | - | - | - |
| 1777702888 | 8.33° C | 20% | 1012.2 hPa | 0 mm | - | - | - |
| 1777702288 | 8.33° C | 19% | 1012.1 hPa | 0 mm | - | - | - |
| 1777701688 | 8.33° C | 17% | 1012 hPa | 0 mm | - | - | - |
* Rain latest hour (hover to see other rain measurements)
** Current wind speed in m/s (hover to see current wind gust speed)